Regional Weather Roundup
Issued by NWS

Home | Current Version | Previous Version | Graphics & Text | Print | Product List | Glossary On
Versions: 1 2 3 4 5 6 7 8 9 10 11 12 13 14 15 16 17 18 19 20 21 22 23 24 25 26 27 28 29 30 31 32 33 34 35 36 37 38 39 40 41 42 43 44 45 46 47 48 49 50
000
ASUS45 KTFX 171110
RWRMT
MONTANA REGIONAL WEATHER ROUNDUP
NATIONAL WEATHER SERVICE GREAT FALLS MT
400 AM MST SUN DEC 17 2017

NOTE: "FAIR" INDICATES FEW OR NO CLOUDS BELOW 12000 FEET WITH NO
SIGNIFICANT WEATHER AND/OR OBSTRUCTIONS TO VISIBILITY.

MTZ001>007-043-171200-
WEST OF THE DIVIDE

CITY           SKY/WX    TMP DP  RH WIND       PRES   REMARKS
KALISPELL      CLOUDY    25  22  88 S6        30.12F WCI  18
MISSOULA       FAIR      12   8  84 CALM      30.19S
BUTTE          CLOUDY     3   0  87 CALM      30.04F FOG
MULLAN PASS    CLOUDY    19  14  81 SW7       30.01S HAZE    WCI  10
ANACONDA         N/A     19   7  58 S9        30.05S WCI   9
DEER LODGE       N/A      7   3  85 CALM      30.09S
EUREKA           N/A     28  19  69 MISG      30.10S
HAMILTON         N/A     21  10  63 S9        30.17R WCI  11
LIBBY            N/A     21  19  93 CALM      30.12F
RONAN            N/A     14   9  81 CALM      30.16S
$$

MTZ008-052>055-171200-
SOUTHWEST MONTANA

CITY           SKY/WX    TMP DP  RH WIND       PRES   REMARKS
BOZEMAN        CLOUDY     4   0  83 SW3       30.05F FOG
DILLON         FAIR      15   6  67 S12       30.05F WCI   2
W YELLOWSTONE  FAIR     -11 -17  77 CALM      30.04R
ENNIS          CLOUDY    16   7  67 SE9       30.10S WCI   4
THREE FORKS      N/A     -5 -11  75 CALM      30.03F VSB 0
$$

MTZ009-010-012-014-046-048-049-054-171200-
EAST SLOPES AND CENTRAL MONTANA

CITY           SKY/WX    TMP DP  RH WIND       PRES   REMARKS
CUT BANK       FAIR      26  18  71 W31G43    29.75F HAZE    WCI   9
GREAT FALLS    FAIR      25  12  58 SW22G33   29.85F WCI  10
MALMSTROM AFB  FAIR      23  15  70 SW17      29.86F WCI  10
HELENA         FAIR      23  11  60 VRB3      30.02S
BOWMANS CRNR   FAIR      23  11  61 SW25G36   29.84F WCI   6
CHOTEAU          N/A     30  12  47 VRB5G16   29.80F
FAIRFIELD      FAIR      27  10  50 SW9       29.80F WCI  17
POWER          FAIR      21  12  68 S15       29.81F WCI   7
RAYNESFORD     FAIR      25  12  56 SW15G21   29.85F WCI  13
ULM            FAIR      21  13  71 S10       29.88F WCI  10
$$

MTZ011-013-016-021-045-047-050-051-171200-
NORTH CENTRAL MONTANA

CITY           SKY/WX    TMP DP  RH WIND       PRES   REMARKS
HAVRE          FAIR      21  16  81 SW14      29.84F WCI   8
LEWISTOWN      FAIR      22  12  65 SW13      29.85F WCI  10
N BAR RANCH    FAIR      14   9  79 NW5       29.85F
CHINOOK          N/A     25  14  63 CALM      29.86F
DENTON         FAIR      13   7  77 SW9       29.83F WCI   0
GEYSER         FAIR      22  11  65 SW10G18   29.82F WCI  11
GRASS RANGE    FAIR      19  10  70 CALM      29.82F
STANFORD       FAIR      13   3  63 W5        29.83F
WINIFRED       FAIR      24  13  64 SW8       29.84F WCI  15
$$

MTZ017>020-022>027-061-062-171200-
NORTHEAST MONTANA

CITY           SKY/WX    TMP DP  RH WIND       PRES   REMARKS
GLASGOW        FAIR      17  15  92 E13       29.91F WCI   4
GLENDIVE       FAIR      18  15  88 S6        29.99F WCI  10
JORDAN           N/A     19  14  81 CALM      29.93F
SIDNEY         FAIR      13  10  88 S3        30.00F
WOLF POINT     FAIR      10   6  84 CALM      29.97F
MALTA          CLEAR     23  18  80 CALM      29.89F
PLENTYWOOD       N/A     18  12  79 CALM      29.94F
POPLAR           N/A     16  12  86 CALM      29.98F
$$

MTZ028>42-056>058-171200-
SOUTHCENTRAL AND SOUTHEAST MONTANA

CITY           SKY/WX    TMP DP  RH WIND       PRES   REMARKS
BAKER          FAIR      18  16  92 E3        30.00F
BILLINGS       FOG       24  24 100 SW13      29.95F VSB 1/2 WCI  12
LIVINGSTON     FAIR      18  14  84 W18G26    29.96F WCI   2
MILES CITY     FAIR      18  17  96 SE7       29.99F WCI   9
BIG TIMBER     CLEAR     21  16  79 W30G39    29.93F HAZE    WCI   3
FORSYTH          N/A     21  19  93 CALM      29.99F
HARLOWTON      FAIR      14  10  84 SW6       29.89F WCI   5
LAUREL           N/A     23  23 100 SW10      29.98F WCI  12
$$

REGIONAL REPORTS...DAKOTAS

CITY           SKY/WX    TMP DP  RH WIND       PRES   REMARKS
WILLISTON      FAIR      18  16  92 SW3       29.99F
MINOT          FAIR      22  16  78 SW12      29.98S WCI  10
DICKINSON      FAIR      17  14  88 W6        29.98S WCI   9
BEACH          CLOUDY    18  18 100 S5        30.02F
CROSBY         FAIR      19  18  93 SW13      29.95F WCI   7
TIOGA          FAIR      16  16 100 CALM      29.97F
BISMARCK       FAIR      23  19  85 W3        30.03F
GRAND FORKS    FAIR      11   9  92 S7        30.01F WCI   0
FARGO          FAIR      24  22  91 SE7       30.04S WCI  16
BUFFALO SD       N/A     26  22  84 W5        29.93F
RAPID CITY     CLOUDY    29  26  89 N3        30.02F
$$

REGIONAL REPORTS...WYOMING/IDAHO/WASHINGTON

CITY           SKY/WX    TMP DP  RH WIND       PRES   REMARKS
GILLETTE       FAIR      18  17  96 W3        29.96F FOG
SHERIDAN       FOG       22  20  92 CALM      29.98S VSB 1/4
BUFFALO WY     CLOUDY    24  19  81 SE8       29.94S WCI  15
CODY           FAIR      17  14  88 S6        29.97F WCI   9
YELLOWSTONE LA   N/A     -5 -10  79 CALM      30.00S
IDAHO FALLS      N/A     19  19 100 SW10      30.17R VSB 1/4 WCI   7
SALMON         FAIR       7   4  87 CALM      30.23S
BOISE          FAIR      19  16  88 CALM      30.25S
SPOKANE        LGT SNOW  27  26  96 S7        30.18S FOG     WCI  19
$$

REGIONAL REPORTS...ALBERTA

CITY           SKY/WX    TMP DP  RH WIND       PRES   REMARKS
EDMONTON       CLOUDY    28  14  54 S7        29.53F WCI  21
CALGARY        MOCLDY    28  12  50 CALM      29.60F
LETHBRIDGE     MOCLDY    34  18  51 W25G33    29.69F WCI  21
MEDICINE HAT   CLEAR     25  16  68 SW13      29.73F WCI  13
$$

REGIONAL REPORTS...SASKATCHEWAN

CITY           SKY/WX    TMP DP  RH WIND       PRES   REMARKS
SWIFT CURRENT  CLEAR     21  16  79 S14       29.77F WCI   8
REGINA         CLEAR     16  14  93 S8        29.86F WCI   5
SASKATOON      CLEAR     21  19  93 S12       29.76F WCI   9
$$



USA.gov is the U.S. government's official web portal to all federal, state and local government web resources and services.